| time (UTC) | temp C | wind direction | speed KPH | gust KPH | rain 1hr cm | rain 24hr cm | rain mn cm | humidity % | barometer mb |
| 20260506135558 | 7 | 284 | 4.8 | 11.3 | 0.00 | 0.00 | 0.05 | 64 | 1015.8 |
| 20260506135038 | 7 | 322 | 9.7 | 12.9 | 0.00 | 0.00 | 0.05 | 64 | 1015.7 |
| 20260506134543 | 7 | 330 | 9.7 | 11.3 | 0.00 | 0.00 | 0.05 | 65 | 1015.6 |
| 20260506134105 | 7 | 317 | 9.7 | 11.3 | 0.00 | 0.00 | 0.05 | 65 | 1015.5 |
| 20260506133533 | 7 | 332 | 6.4 | 11.3 | 0.00 | 0.00 | 0.05 | 65 | 1015.5 |
| 20260506133034 | 7 | 304 | 9.7 | 11.3 | 0.00 | 0.00 | 0.05 | 65 | 1015.5 |
| 20260506132531 | 7 | 327 | 6.4 | 9.7 | 0.00 | 0.00 | 0.05 | 65 | 1015.4 |
| 20260506131529 | 7 | 321 | 3.2 | 9.7 | 0.00 | 0.00 | 0.05 | 66 | 1015.4 |
| 20260506130025 | 7 | 313 | 4.8 | 11.3 | 0.00 | 0.00 | 0.05 | 66 | 1015.2 |
| 20260506124521 | 7 | 328 | 6.4 | 9.7 | 0.00 | 0.00 | 0.05 | 66 | 1015.0 |
| 20260506124019 | 7 | 325 | 6.4 | 8.0 | 0.00 | 0.00 | 0.05 | 67 | 1015.0 |
| 20260506123519 | 7 | 272 | 4.8 | 9.7 | 0.00 | 0.00 | 0.05 | 67 | 1015.0 |
| 20260506122516 | 7 | 343 | 4.8 | 9.7 | 0.00 | 0.00 | 0.05 | 67 | 1014.8 |
| 20260506121014 | 7 | 307 | 8.0 | 9.7 | 0.00 | 0.00 | 0.05 | 66 | 1014.8 |
| 20260506120015 | 7 | 314 | 6.4 | 9.7 | 0.00 | 0.00 | 0.05 | 66 | 1014.7 |
| 20260506115508 | 7 | 309 | 8.0 | 9.7 | 0.00 | 0.00 | 0.05 | 66 | 1014.7 |
| 20260506115010 | 7 | 306 | 6.4 | 9.7 | 0.00 | 0.00 | 0.05 | 66 | 1014.6 |
| 20260506114511 | 7 | 332 | 6.4 | 8.0 | 0.00 | 0.00 | 0.05 | 66 | 1014.6 |
| 20260506112502 | 7 | 345 | 8.0 | 9.7 | 0.00 | 0.00 | 0.05 | 67 | 1014.5 |
| 20260506112001 | 7 | 340 | 6.4 | 9.7 | 0.00 | 0.00 | 0.05 | 67 | 1014.4 |
| 20260506111458 | 7 | 320 | 4.8 | 6.4 | 0.00 | 0.00 | 0.05 | 67 | 1014.4 |
| 20260506110957 | 7 | 312 | 4.8 | 9.7 | 0.00 | 0.00 | 0.05 | 69 | 1014.4 |
| 20260506110455 | 7 | 331 | 4.8 | 8.0 | 0.00 | 0.00 | 0.05 | 69 | 1014.3 |
| 20260506105455 | 7 | 338 | 6.4 | 6.4 | 0.00 | 0.00 | 0.05 | 69 | 1014.3 |
| 20260506102948 | 6 | 315 | 8.0 | 9.7 | 0.00 | 0.00 | 0.05 | 70 | 1014.0 |
| 20260506102444 | 6 | 337 | 6.4 | 8.0 | 0.00 | 0.00 | 0.05 | 71 | 1013.9 |
| 20260506101944 | 6 | 345 | 8.0 | 8.0 | 0.00 | 0.00 | 0.05 | 71 | 1013.8 |
| 20260506101443 | 6 | 341 | 8.0 | 8.0 | 0.00 | 0.00 | 0.05 | 71 | 1013.8 |
| 20260506100944 | 6 | 335 | 3.2 | 8.0 | 0.00 | 0.00 | 0.05 | 72 | 1013.9 |
| 20260506100441 | 6 | 334 | 4.8 | 6.4 | 0.00 | 0.00 | 0.05 | 72 | 1013.9 |
| 20260506095940 | 6 | 321 | 4.8 | 4.8 | 0.00 | 0.00 | 0.05 | 72 | 1013.8 |
| 20260506095437 | 6 | 250 | 1.6 | 4.8 | 0.00 | 0.00 | 0.05 | 73 | 1013.8 |
| 20260506093936 | 6 | 281 | 4.8 | 9.7 | 0.00 | 0.00 | 0.05 | 73 | 1013.8 |
| 20260506093434 | 6 | 311 | 9.7 | 9.7 | 0.00 | 0.00 | 0.05 | 74 | 1013.8 |
| 20260506092932 | 5 | 333 | 4.8 | 9.7 | 0.00 | 0.00 | 0.05 | 74 | 1013.9 |
| 20260506092430 | 5 | 349 | 4.8 | 8.0 | 0.00 | 0.00 | 0.05 | 74 | 1013.9 |
| 20260506091930 | 5 | 344 | 4.8 | 9.7 | 0.00 | 0.00 | 0.05 | 75 | 1013.8 |
| 20260506091428 | 5 | 341 | 8.0 | 11.3 | 0.00 | 0.00 | 0.05 | 75 | 1013.8 |
| 20260506090927 | 5 | 344 | 4.8 | 6.4 | 0.00 | 0.00 | 0.05 | 75 | 1013.8 |
| 20260506085926 | 5 | 342 | 9.7 | 12.9 | 0.00 | 0.00 | 0.05 | 76 | 1013.7 |
| 20260506085422 | 5 | 341 | 6.4 | 9.7 | 0.00 | 0.00 | 0.05 | 76 | 1013.7 |
| 20260506084920 | 5 | 329 | 3.2 | 9.7 | 0.00 | 0.00 | 0.05 | 76 | 1013.8 |
| 20260506082415 | 6 | 24 | 0.0 | 0.0 | 0.00 | 0.00 | 0.05 | 77 | 1013.7 |
| 20260506080409 | 6 | 250 | 0.0 | 0.0 | 0.00 | 0.00 | 0.05 | 77 | 1013.6 |
| 20260506073402 | 6 | 343 | 1.6 | 6.4 | 0.00 | 0.00 | 0.05 | 76 | 1013.5 |
| 20260506072400 | 6 | 313 | 3.2 | 3.2 | 0.00 | 0.00 | 0.05 | 76 | 1013.5 |
| 20260506071859 | 6 | 210 | 0.0 | 3.2 | 0.00 | 0.00 | 0.05 | 76 | 1013.5 |
| 20260506071359 | 6 | 164 | 0.0 | 3.2 | 0.00 | 0.00 | 0.05 | 76 | 1013.5 |
| 20260506070856 | 6 | 336 | 1.6 | 4.8 | 0.00 | 0.00 | 0.05 | 76 | 1013.4 |
| 20260506070354 | 6 | 223 | 3.2 | 3.2 | 0.00 | 0.00 | 0.05 | 76 | 1013.5 |
| 20260506062344 | 6 | 199 | 3.2 | 6.4 | 0.00 | 0.00 | 0.05 | 75 | 1013.1 |
| 20260506061844 | 6 | 243 | 1.6 | 4.8 | 0.00 | 0.00 | 0.05 | 75 | 1013.0 |
| 20260506061343 | 7 | 205 | 3.2 | 4.8 | 0.00 | 0.00 | 0.05 | 75 | 1013.0 |
| 20260506060840 | 7 | 221 | 3.2 | 4.8 | 0.00 | 0.00 | 0.05 | 75 | 1012.9 |
| 20260506044824 | 7 | 297 | 0.0 | 3.2 | 0.00 | 0.00 | 0.05 | 73 | 1012.5 |
| 20260506044320 | 7 | 201 | 3.2 | 3.2 | 0.00 | 0.00 | 0.05 | 73 | 1012.5 |
| 20260506041812 | 7 | 250 | 1.6 | 1.6 | 0.00 | 0.00 | 0.05 | 74 | 1012.4 |
| 20260506041312 | 7 | 288 | 0.0 | 3.2 | 0.00 | 0.00 | 0.05 | 74 | 1012.3 |
| 20260506040814 | 7 | 0 | 0.0 | 0.0 | 0.00 | 0.00 | 0.05 | 74 | 1012.4 |
| 20260506040309 | 7 | 205 | 0.0 | 4.8 | 0.00 | 0.00 | 0.05 | 74 | 1012.3 |
| 20260506034817 | 7 | 342 | 3.2 | 4.8 | 0.00 | 0.00 | 0.05 | 73 | 1012.2 |
| 20260506034304 | 7 | 246 | 1.6 | 6.4 | 0.00 | 0.00 | 0.05 | 72 | 1012.1 |
| 20260506033301 | 7 | 282 | 6.4 | 8.0 | 0.00 | 0.00 | 0.05 | 71 | 1012.1 |
| 20260506032259 | 7 | 319 | 3.2 | 17.7 | 0.00 | 0.00 | 0.05 | 70 | 1012.0 |
| 20260506031256 | 8 | 285 | 4.8 | 8.0 | 0.00 | 0.00 | 0.05 | 67 | 1011.9 |
| 20260506025753 | 8 | 227 | 3.2 | 3.2 | 0.00 | 0.00 | 0.05 | 66 | 1011.6 |
| 20260506025251 | 9 | 205 | 0.0 | 4.8 | 0.00 | 0.00 | 0.05 | 66 | 1011.7 |
| 20260506024249 | 9 | 64 | 0.0 | 4.8 | 0.00 | 0.00 | 0.05 | 65 | 1011.5 |
| 20260506023747 | 9 | 71 | 0.0 | 3.2 | 0.00 | 0.00 | 0.05 | 65 | 1011.7 |
| 20260506023245 | 9 | 86 | 0.0 | 1.6 | 0.00 | 0.00 | 0.05 | 65 | 1011.6 |
| 20260506022243 | 10 | 210 | 0.0 | 1.6 | 0.00 | 0.00 | 0.05 | 64 | 1011.5 |
| 20260506020746 | 10 | 93 | 0.0 | 9.7 | 0.00 | 0.00 | 0.05 | 64 | 1011.5 |
| 20260506020238 | 10 | 129 | 1.6 | 11.3 | 0.00 | 0.00 | 0.05 | 63 | 1011.3 |
| 20260506013331 | 10 | 61 | 3.2 | 4.8 | 0.00 | 0.00 | 0.05 | 64 | 1011.0 |
| 20260506012326 | 10 | 140 | 0.0 | 0.0 | 0.00 | 0.00 | 0.05 | 63 | 1011.1 |
| 20260506011326 | 10 | 184 | 3.2 | 4.8 | 0.00 | 0.00 | 0.05 | 63 | 1011.0 |
| 20260506010329 | 10 | 24 | 0.0 | 0.0 | 0.00 | 0.00 | 0.05 | 63 | 1010.9 |
| 20260506005319 | 10 | 71 | 0.0 | 1.6 | 0.00 | 0.00 | 0.05 | 63 | 1010.9 |
| 20260506004316 | 10 | 55 | 1.6 | 4.8 | 0.00 | 0.00 | 0.05 | 62 | 1011.0 |
| 20260506003815 | 10 | 143 | 0.0 | 6.4 | 0.00 | 0.00 | 0.05 | 62 | 1010.9 |
| 20260506002313 | 11 | 169 | 0.0 | 3.2 | 0.00 | 0.00 | 0.05 | 60 | 1010.8 |
| 20260506000807 | 12 | 153 | 6.4 | 6.4 | 0.00 | 0.00 | 0.05 | 59 | 1010.7 |
| 20260505235807 | 12 | 139 | 3.2 | 3.2 | 0.00 | 0.00 | 0.05 | 60 | 1010.6 |
| 20260505233304 | 11 | 49 | 9.7 | 14.5 | 0.00 | 0.00 | 0.05 | 61 | 1010.6 |
| 20260505232255 | 11 | 63 | 1.6 | 9.7 | 0.00 | 0.00 | 0.05 | 61 | 1010.5 |
| 20260505231754 | 11 | 75 | 1.6 | 6.4 | 0.00 | 0.00 | 0.05 | 61 | 1010.5 |
| 20260505230319 | 11 | 66 | 16.1 | 17.7 | 0.00 | 0.00 | 0.05 | 61 | 1010.4 |
| 20260505230211 | 11 | 79 | 3.2 | 17.7 | 0.00 | 0.00 | 0.05 | 61 | 1010.4 |
| 20260505225705 | 11 | 33 | 6.4 | 11.3 | 0.00 | 0.00 | 0.05 | 61 | 1010.4 |
| 20260505225205 | 11 | 71 | 3.2 | 14.5 | 0.00 | 0.00 | 0.05 | 61 | 1010.4 |
| 20260505224203 | 11 | 55 | 3.2 | 11.3 | 0.00 | 0.00 | 0.05 | 62 | 1010.3 |
| 20260505221159 | 10 | 247 | 0.0 | 6.4 | 0.00 | 0.00 | 0.05 | 63 | 1010.4 |
| 20260505220154 | 10 | 128 | 1.6 | 8.0 | 0.00 | 0.00 | 0.05 | 62 | 1010.4 |
| 20260505215653 | 10 | 308 | 1.6 | 4.8 | 0.00 | 0.00 | 0.05 | 62 | 1010.4 |
| 20260505215149 | 10 | 141 | 0.0 | 4.8 | 0.00 | 0.00 | 0.05 | 62 | 1010.4 |
| 20260505212647 | 10 | 159 | 6.4 | 6.4 | 0.00 | 0.00 | 0.05 | 62 | 1010.6 |
| 20260505211642 | 10 | 164 | 11.3 | 12.9 | 0.00 | 0.00 | 0.05 | 62 | 1010.5 |
| 20260505204133 | 9 | 139 | 1.6 | 8.0 | 0.00 | 0.00 | 0.05 | 64 | 1010.4 |
| 20260505202629 | 9 | 164 | 0.0 | 6.4 | 0.00 | 0.00 | 0.05 | 65 | 1010.3 |
| 20260505202130 | 9 | 205 | 1.6 | 9.7 | 0.00 | 0.00 | 0.05 | 65 | 1010.3 |
| 20260505201122 | 8 | 252 | 4.8 | 9.7 | 0.00 | 0.00 | 0.05 | 66 | 1010.3 |
| 20260505200121 | 8 | 236 | 6.4 | 8.0 | 0.00 | 0.00 | 0.05 | 66 | 1010.3 |
| 20260505195621 | 8 | 295 | 8.0 | 9.7 | 0.00 | 0.00 | 0.05 | 66 | 1010.3 |
| 20260505195119 | 8 | 240 | 8.0 | 9.7 | 0.00 | 0.00 | 0.05 | 67 | 1010.3 |
| 20260505193614 | 8 | 239 | 3.2 | 6.4 | 0.00 | 0.00 | 0.05 | 70 | 1010.3 |
| 20260505193113 | 8 | 250 | 3.2 | 4.8 | 0.00 | 0.00 | 0.05 | 71 | 1010.2 |
| 20260505192611 | 8 | 180 | 1.6 | 3.2 | 0.00 | 0.00 | 0.05 | 71 | 1010.2 |
| 20260505190608 | 7 | 159 | 1.6 | 4.8 | 0.00 | 0.00 | 0.05 | 72 | 1010.3 |
| 20260505190106 | 7 | 250 | 1.6 | 6.4 | 0.00 | 0.00 | 0.03 | 73 | 1010.3 |
| 20260505185608 | 7 | 250 | 6.4 | 8.0 | 0.00 | 0.00 | 0.03 | 73 | 1010.3 |
| 20260505175546 | 6 | 343 | 0.0 | 1.6 | 0.00 | 0.00 | 1.78 | 77 | 1009.8 |
| 20260505174543 | 6 | 345 | 0.0 | 1.6 | 0.00 | 0.00 | 1.68 | 78 | 1009.8 |
| 20260505174041 | 5 | 205 | 1.6 | 1.6 | 0.00 | 0.00 | 1.63 | 78 | 1009.6 |
| 20260505173539 | 5 | 115 | 0.0 | 0.0 | 0.00 | 0.00 | 1.57 | 78 | 1009.6 |
| 20260505172041 | 5 | 157 | 1.6 | 3.2 | 0.00 | 0.00 | 1.47 | 80 | 1009.6 |
| 20260505170533 | 5 | 212 | 3.2 | 3.2 | 0.00 | 0.00 | 1.32 | 81 | 1009.4 |
| 20260505170131 | 4 | 250 | 3.2 | 4.8 | 0.00 | 0.00 | 1.30 | 81 | 1009.3 |
| 20260505170033 | 4 | 250 | 3.2 | 4.8 | 0.00 | 0.00 | 1.30 | 81 | 1009.3 |
| 20260505165030 | 4 | 296 | 0.0 | 1.6 | 0.00 | 0.00 | 1.22 | 82 | 1009.3 |
| 20260505164026 | 3 | 205 | 0.0 | 1.6 | 0.00 | 0.00 | 1.17 | 82 | 1009.3 |
| 20260505163024 | 3 | 326 | 1.6 | 1.6 | 0.00 | 0.00 | 1.12 | 83 | 1009.2 |
| 20260505162522 | 3 | 250 | 0.0 | 1.6 | 0.00 | 0.00 | 1.07 | 83 | 1009.2 |
| 20260505162021 | 3 | 340 | 0.0 | 3.2 | 0.00 | 0.00 | 1.04 | 83 | 1009.2 |
| 20260505161520 | 2 | 341 | 1.6 | 1.6 | 0.00 | 0.00 | 0.99 | 83 | 1009.2 |
| 20260505161018 | 2 | 295 | 1.6 | 3.2 | 0.00 | 0.00 | 0.97 | 83 | 1009.2 |
| 20260505160517 | 2 | 340 | 0.0 | 1.6 | 0.00 | 0.00 | 0.94 | 83 | 1009.1 |
| 20260505153011 | 2 | 344 | 0.0 | 3.2 | 0.00 | 0.00 | 0.79 | 85 | 1008.7 |
| 20260505140448 | 1 | 205 | 0.0 | 0.0 | 0.00 | 0.00 | 0.71 | 85 | 1008.3 |